Waarnemingen

Advertentie
Mijn weer
Schaffen, België (6465): temperatuur & dauwpunt: 21.01.2020 21:00:00 - 27.01.2020 21:00:00 (CET)Schaffen, België (6465): windsnelheid & windstoten: 21.01.2020 21:00:00 - 27.01.2020 21:00:00 (CET)Schaffen, België (6465): windrichting: 21.01.2020 21:00:00 - 27.01.2020 21:00:00 (CET)Schaffen, België (6465): luchtdruk: 21.01.2020 21:00:00 - 27.01.2020 21:00:00 (CET)Schaffen, België (6465): zicht: 21.01.2020 21:00:00 - 27.01.2020 21:00:00 (CET)
Datum & Tijd tt [°C] td [°C] ff [km/u] ff [kn] fx [km/u] fx [kn] dd ppp [hPa] vv [km]
27.01.2020 21:00:00 7,7 5,4 22 12 32 18 Z 997,7 19
27.01.2020 20:00:00 8,0 6,1 18 10 29 16 Z 999,5 20
27.01.2020 19:00:00 7,8 6,4 11 6 - - Z 1001,2 20
27.01.2020 18:00:00 7,9 6,3 13 7 22 12 Z 1002,2 7
27.01.2020 17:00:00 8,5 5,8 11 6 25 14 Z 1003,2 20
27.01.2020 16:00:00 8,8 5,7 14 8 - - ZZW 1004,1 20
27.01.2020 15:00:00 9,0 6,6 14 8 25 14 Z 1004,7 20
27.01.2020 14:00:00 9,3 7,4 11 6 22 12 ZZW 1005,2 10
27.01.2020 13:00:00 9,1 7,6 14 8 - - ZZW 1006,3 20
27.01.2020 12:00:00 8,5 7,5 11 6 22 12 ZZW 1007,2 20
27.01.2020 11:00:00 8,1 7,1 14 8 29 16 ZZW 1007,7 5
27.01.2020 10:00:00 8,1 6,8 14 8 - - Z 1007,7 20
27.01.2020 09:00:00 7,8 6,9 16 9 25 14 Z 1008,2 10
27.01.2020 08:00:00 7,6 6,9 14 8 29 16 Z 1008,7 8
27.01.2020 07:00:00 8,0 6,6 22 12 - - ZZW 1008,8 20
27.01.2020 06:00:00 7,8 6,3 22 12 36 19 Z 1009,3 20
27.01.2020 05:00:00 7,5 6,4 22 12 40 21 Z 1009,8 6
27.01.2020 04:00:00 7,8 6,4 18 10 - - Z 1010,0 12
27.01.2020 03:00:00 7,8 6,3 18 10 32 18 Z 1010,6 14
27.01.2020 02:00:00 7,9 5,5 22 12 32 18 Z 1011,2 16
27.01.2020 01:00:00 7,6 4,7 18 10 - - Z 1011,7 17
27.01.2020 00:00:00 7,3 4,6 18 10 32 18 Z 1012,2 18
26.01.2020 23:00:00 7,2 4,5 18 10 25 14 Z 1012,7 15
26.01.2020 22:00:00 7,0 4,6 14 8 - - ZZW 1013,5 14
26.01.2020 21:00:00 7,1 4,9 14 8 25 14 Z 1013,8 12
26.01.2020 20:00:00 7,9 5,2 14 8 32 18 ZZW 1014,2 14
26.01.2020 19:00:00 8,3 5,3 14 8 - - ZZW 1014,1 16
26.01.2020 18:00:00 8,3 5,2 14 8 25 14 Z 1014,2 19
26.01.2020 17:00:00 8,9 5,2 14 8 29 16 ZZW 1014,2 19
26.01.2020 16:00:00 9,8 5,5 14 8 - - Z 1014,2 19
26.01.2020 15:00:00 10,5 5,5 14 8 25 14 Z 1014,6 20
26.01.2020 14:00:00 9,9 5,5 11 6 22 12 Z 1015,2 15
26.01.2020 13:00:00 9,0 5,1 7 4 - - Z 1015,7 12
26.01.2020 12:00:00 7,5 4,6 14 8 18 10 Z 1016,3 10
26.01.2020 11:00:00 6,2 4,3 7 4 18 10 Z 1016,8 7
26.01.2020 10:00:00 4,1 3,7 7 4 - - Z 1017,0 5
26.01.2020 09:00:00 2,8 2,6 7 4 7 4 Z 1016,6 5
26.01.2020 08:00:00 2,5 2,5 4 2 14 8 N 1016,6 5
26.01.2020 07:00:00 2,3 2,2 8 4 - - ZZO 1016,7 6
26.01.2020 06:00:00 1,8 1,8 8 4 11 6 ZZO 1016,7 3,6
26.01.2020 05:00:00 1,3 1,3 4 2 11 6 N 1017,2 3,7
26.01.2020 04:00:00 1,1 1,1 4 2 - - N 1017,6 0,8
26.01.2020 03:00:00 1,2 1,2 4 2 7 4 N 1018,0 0,2
26.01.2020 02:00:00 1,5 1,5 4 2 7 4 N 1018,3 0,2
26.01.2020 01:00:00 1,6 1,6 4 2 - - N 1019,2 0,1
26.01.2020 00:00:00 1,7 1,7 4 2 11 6 N 1019,5 0,1
25.01.2020 23:00:00 1,8 1,8 7 4 11 6 OZO 1020,1 0,1
25.01.2020 22:00:00 1,7 1,7 7 4 - - ZO 1020,2 0,1
25.01.2020 21:00:00 1,8 1,8 7 4 14 8 OZO 1020,6 0,1
25.01.2020 20:00:00 2,2 2,2 7 4 14 8 OZO 1020,7 0,1
25.01.2020 19:00:00 2,2 2,2 7 4 - - Z 1021,1 0,1
25.01.2020 18:00:00 2,3 2,3 7 4 11 6 ZZO 1020,8 0,2
25.01.2020 17:00:00 2,5 2,5 4 2 7 4 N 1020,7 1,2
25.01.2020 16:00:00 2,5 2,3 7 4 - - N 1021,1 2,4
25.01.2020 15:00:00 2,4 2,3 4 2 7 4 N 1021,6 1,9
25.01.2020 14:00:00 2,0 2,0 4 2 7 4 - 1022,2 1,6
25.01.2020 13:00:00 1,9 1,9 4 2 - - N 1022,7 2,8
25.01.2020 12:00:00 1,4 1,4 4 2 7 4 N 1023,2 0,6
25.01.2020 11:00:00 1,0 1,0 4 2 7 4 N 1023,2 0,3
25.01.2020 10:00:00 0,6 0,4 4 2 - - N 1023,1 1,2
25.01.2020 09:00:00 0,5 0,1 4 2 7 4 N 1022,8 2,2
25.01.2020 08:00:00 0,1 0,1 4 2 4 2 N 1022,7 0,3
25.01.2020 07:00:00 0,1 0,0 4 2 - - N 1022,5 0,8
25.01.2020 06:00:00 0,1 -0,4 4 2 7 4 N 1022,5 2,3
25.01.2020 05:00:00 0,1 -0,8 4 2 11 6 N 1022,7 3,5
25.01.2020 04:00:00 0,0 -1,1 4 2 - - N 1023,0 3,9
25.01.2020 03:00:00 0,1 -1,2 7 4 14 8 Z 1023,2 4,2
25.01.2020 02:00:00 0,0 -1,3 9 5 14 8 ZZW 1023,5 4,0
25.01.2020 01:00:00 0,3 -0,8 4 2 - - N 1023,7 4,0
25.01.2020 00:00:00 0,6 -0,5 7 4 14 8 Z 1023,8 4,0
24.01.2020 23:00:00 0,6 0,0 7 4 7 4 N 1023,8 3,8
24.01.2020 22:00:00 0,7 0,4 0 0 - - N 1024,2 3,3
24.01.2020 21:00:00 0,6 0,4 4 2 7 4 N 1024,4 4,5
24.01.2020 20:00:00 0,6 0,4 4 2 7 4 N 1024,0 5
24.01.2020 19:00:00 0,8 0,1 4 2 - - N 1023,8 6
24.01.2020 18:00:00 1,0 0,4 7 4 11 6 Z 1023,2 5
24.01.2020 17:00:00 1,2 0,3 4 2 11 6 N 1023,2 8
24.01.2020 16:00:00 1,2 0,3 4 2 - - N 1023,3 8
24.01.2020 15:00:00 1,3 0,5 4 2 11 6 N 1023,8 6
24.01.2020 14:00:00 1,2 0,8 4 2 11 6 N 1024,4 4,4
24.01.2020 13:00:00 1,3 0,6 4 2 - - N 1024,7 5
24.01.2020 12:00:00 1,6 1,1 4 2 11 6 N 1025,2 5
24.01.2020 11:00:00 1,4 0,7 7 4 11 6 WZW 1025,0 4,0
24.01.2020 10:00:00 1,5 0,9 8 4 - - Z 1024,7 2,5
24.01.2020 09:00:00 1,7 1,3 4 2 14 8 - 1024,5 2,5
24.01.2020 08:00:00 1,5 1,1 7 4 18 10 Z 1024,4 3,1
24.01.2020 07:00:00 1,5 1,3 4 2 - - N 1024,5 2,2
24.01.2020 06:00:00 1,2 1,2 4 2 4 2 N 1024,5 1,4
24.01.2020 05:00:00 0,9 0,9 4 2 7 4 N 1025,0 1,6
24.01.2020 04:00:00 0,8 0,8 2 1 - - - 1025,2 1,9
24.01.2020 03:00:00 1,0 1,0 4 2 11 6 N 1026,0 1,2
24.01.2020 02:00:00 1,1 1,1 4 2 11 6 N 1026,4 0,2
24.01.2020 01:00:00 1,1 1,1 4 2 - - N 1026,7 0,1
24.01.2020 00:00:00 1,0 1,0 4 2 11 6 N 1027,2 0,5
23.01.2020 23:00:00 1,1 1,1 4 2 14 8 N 1027,5 0,5
23.01.2020 22:00:00 1,3 1,2 4 2 - - N 1027,7 1,7
23.01.2020 21:00:00 1,3 1,2 7 4 11 6 O 1027,7 2,0
23.01.2020 20:00:00 1,6 1,2 7 4 14 8 O 1028,2 2,7
23.01.2020 19:00:00 2,0 1,4 7 4 - - ONO 1028,2 3,3
23.01.2020 18:00:00 2,1 1,3 7 4 14 8 O 1028,7 3,7
23.01.2020 17:00:00 2,2 1,3 7 4 14 8 ONO 1029,2 4,7
23.01.2020 16:00:00 2,7 1,6 7 4 - - ONO 1029,5 5
23.01.2020 15:00:00 3,0 1,8 7 4 18 10 OZO 1030,4 7
23.01.2020 14:00:00 3,2 1,9 14 8 18 10 O 1031,2 8
23.01.2020 13:00:00 3,4 2,1 11 6 - - O 1032,0 9
23.01.2020 12:00:00 3,2 1,7 11 6 22 12 ONO 1032,5 8
23.01.2020 11:00:00 3,2 1,7 11 6 14 8 ONO 1033,0 4,5
23.01.2020 10:00:00 3,0 2,1 4 2 - - N 1033,5 3,0
23.01.2020 09:00:00 2,4 1,9 4 2 7 4 N 1033,7 2,7
23.01.2020 08:00:00 2,5 2,1 4 2 7 4 N 1034,0 2,2
23.01.2020 07:00:00 2,7 2,4 4 2 - - N 1034,0 1,9
23.01.2020 06:00:00 2,9 2,8 4 2 7 4 N 1034,2 1,2
23.01.2020 05:00:00 2,9 2,8 4 2 7 4 - 1034,7 1,9
23.01.2020 04:00:00 2,9 2,8 4 2 - - N 1035,2 0,9
23.01.2020 03:00:00 2,9 2,9 4 2 7 4 N 1036,0 0,7
23.01.2020 02:00:00 2,8 2,8 4 2 7 4 N 1036,5 0,5
23.01.2020 01:00:00 2,9 2,9 4 2 - - N 1036,9 0,4
23.01.2020 00:00:00 2,7 2,6 4 2 7 4 N 1036,9 0,3
22.01.2020 23:00:00 2,7 2,7 4 2 4 2 N 1037,0 0,2
22.01.2020 22:00:00 2,7 2,7 4 2 - - N 1037,5 0,3
22.01.2020 21:00:00 2,7 2,7 4 2 4 2 N 1037,5 0,8
22.01.2020 20:00:00 2,4 2,3 4 2 4 2 N 1037,2 0,6
22.01.2020 19:00:00 2,2 2,2 4 2 - - N 1037,0 0,5
22.01.2020 18:00:00 2,2 2,2 4 2 7 4 N 1037,0 0,8
22.01.2020 17:00:00 2,2 2,2 4 2 7 4 N 1036,7 1,7
22.01.2020 16:00:00 2,4 2,4 2 1 - - - 1036,9 3,2
22.01.2020 15:00:00 2,2 2,2 4 2 11 6 N 1036,9 4,0
22.01.2020 14:00:00 1,4 1,4 7 4 11 6 Z 1037,2 4,0
22.01.2020 13:00:00 -0,1 -0,1 4 2 - - N 1037,7 4,3
22.01.2020 12:00:00 -0,7 -0,7 4 2 11 6 N 1038,4 3,9
22.01.2020 11:00:00 -1,2 -1,2 8 4 14 8 Z 1038,2 2,7
22.01.2020 10:00:00 -1,9 -1,9 7 4 - - Z 1038,2 1,1
22.01.2020 09:00:00 -2,4 -2,4 2 1 7 4 - 1038,5 0,9
22.01.2020 08:00:00 -2,7 -2,7 4 2 7 4 N 1037,7 0,1
22.01.2020 07:00:00 -2,7 -2,7 4 2 - - N 1038,0 0,1
22.01.2020 06:00:00 -2,7 -2,7 4 2 7 4 N 1038,2 0,1
22.01.2020 05:00:00 -2,8 -2,8 4 2 7 4 N 1038,5 0,1
22.01.2020 04:00:00 -2,7 -2,7 4 2 - - N 1038,9 0,1
22.01.2020 03:00:00 -2,5 -2,5 4 2 11 6 N 1039,2 0,1
22.01.2020 02:00:00 -2,7 -2,7 5 3 18 10 N 1039,4 0,1
22.01.2020 01:00:00 -2,8 -2,8 11 6 - - NNW 1040,0 0,2
22.01.2020 00:00:00 -2,7 -2,7 4 2 7 4 N 1039,7 0,1
21.01.2020 23:00:00 -2,7 -2,7 4 2 14 8 N 1040,0 0,1
21.01.2020 22:00:00 -2,2 -2,2 4 2 - - N 1040,4 0,1
21.01.2020 21:00:00 -2,3 -2,2 4 2 11 6 N 1040,7 0,1

tt = temperatuur
td = dauwpunt
ff = windsnelheid
fx = windstoten
dd = windrichting
ppp = luchtdruk
vv = zicht

Weerstations in de omgeving